OpenBCM V1.08-5-g2f4a (Linux)

Packet Radio Mailbox

IZ3LSV

[San Dona' di P. JN]

 Login: GUEST





  
LU9DCE > KEPS     29.12.17 17:46l 253 Lines 12528 Bytes #999 (0) @ LUNET
BID : 28302_LU9DCE
Read: GUEST
Subj: SAT TLE OF 29
Path: IZ3LSV<IQ2LB<IK1NHL<CX2SA<N0KFQ<LU4ECL<LU9DCE
Sent: 171229/1601Z @:LU9DCE.TOR.BA.ARG.SOAM #:28302 [TORTUGUITAS] FBB7.0.8-beta
From: LU9DCE@LU9DCE.TOR.BA.ARG.SOAM
To  : KEPS@LUNET


            __    _  _  ___  ____   ___  ____    ____  ____  ____
           (  )  / )( \/ _ \(    \ / __)(  __)  (  _ \(  _ \/ ___)
           / (_/\) \/ (\__  )) D (( (__  ) _)    ) _ ( ) _ (\___ \
           \____/\____/(___/(____/ \___)(____)  (____/(____/(____/
               ESTACION DE PACKET RADIO - BUENOS AIRES (GF05OM)
                   BOLETINES INFORMATIVOS PROGRAMADOS (BIP)
                    LU9DCE@GMX.COM - RF 147070 @ 1200 BAUD
                        https://lu9dce.wordpress.com/
                      telnet lu9dce.dynv6.net port 6300

+------------------------------------------------------------------------------+
OSCAR 7
1 07530U 74089B   17362.94956653 -.00000032  00000-0  81254-4 0  9999
2 07530 101.6618 328.0018 0011957 306.2008  87.8414 12.53630447973268
OSCAR 11 (UoSAT 2)
1 14781U 84021B   17362.69897738  .00000109  00000-0  19659-4 0  9996
2 14781  97.6726  40.9704 0007072 284.7226  75.3204 14.82969145819177
OSCAR 19 (LUSAT)
1 20442U 90005G   17362.89967270 -.00000012 +00000-0 +11816-4 0  9998
2 20442 098.5947 297.5882 0010780 295.7851 064.2220 14.32882590459444
KITSAT B
1 22825U 93061C   17362.98740658  .00000012  00000-0  22423-4 0  9994
2 22825  98.8403 331.2323 0009300 119.4068 240.8043 14.30017830265248
POSAT 1
1 22826U 93061D   17362.90367466  .00000008  00000-0  20696-4 0  9994
2 22826  98.8344 331.2061 0009901 110.7239 249.5005 14.30348274265415
RADIO ROSTO
1 23439U 94085A   17362.95760689 -.00000046 +00000-0 -10488-3 0  9992
2 23439 064.8163 264.1473 0162714 212.2335 225.4942 11.27566259947379
JAS 2
1 24278U 96046B   17363.08263926 -.00000015  00000-0  20285-4 0  9992
2 24278  98.5324 220.1195 0350134 192.0362 167.2248 13.53080597 55231
TECHSAT 1B
1 25397U 98043D   17362.87834448 -.00000015 +00000-0 +12481-4 0  9992
2 25397 098.6324 301.2992 0001994 123.9522 236.1847 14.23636927011278
ISS (ZARYA)
1 25544U 98067A   17363.58886554 -.00026153  00000-0 -38795-3 0  9993
2 25544  51.6407 144.2151 0003238 317.4131 120.3341 15.54207055 92143
PCSAT
1 26931U 01043C   17363.31784350 -.00000045  00000-0  14644-4 0  9993
2 26931  67.0521 307.7201 0005223 273.0732  86.9771 14.30488888848257
SAUDISAT 1C
1 27607U 02058C   17362.94798214 +.00000021 +00000-0 +23713-4 0  9993
2 27607 064.5551 250.3695 0044401 011.9153 348.2988 14.75407209807717
CUTE-1
1 27844U 03031E   17362.83215394 +.00000080 +00000-0 +55656-4 0  9995
2 27844 098.6884 008.9940 0010442 140.1122 220.0825 14.22085245751940
CUBESAT XI 4
1 27848U 03031J   17362.95541912 +.00000062 +00000-0 +48143-4 0  9993
2 27848 098.6975 009.4530 0010198 148.9959 211.1822 14.21693344751849
MOZHAYETS 4
1 27939U 03042A   17363.50890230  .00000101  00000-0  26620-4 0  9998
2 27939  97.9648 142.2997 0012235 331.7968 104.6124 14.66644039761947
CUBESAT XI 5
1 28895U 05043F   17363.37852802  .00000167  00000-0  40972-4 0  9999
2 28895  97.8847 156.9596 0015683 244.1865 115.7721 14.63491917649032
CUTE-1.7+APD II
1 32785U 08021C   17363.53021794  .00000271  00000-0  35118-4 0  9999
2 32785  97.5545  18.7545 0011845 237.5764 122.4308 14.88036720523947
DELFI C3
1 32789U 08021G   17362.93507032 +.00000979 +00000-0 +71916-4 0  9991
2 32789 097.5360 056.8898 0013397 152.7739 207.4193 15.05630331526064
SEEDS
1 32791U 08021J   17362.61791068 +.00000487 +00000-0 +55295-4 0  9999
2 32791 097.5479 022.8223 0012455 221.7575 138.2694 14.90431197524025
YUBELEINY
1 32953U 08025A   17363.37806355  .00000003  00000-0 -49854-4 0  9992
2 32953  82.5036 118.2902 0019038 217.4866 142.4887 12.43080747435671
PRISM (HITOMI)
1 33493U 09002B   17363.42552563  .00000062  00000-0  11150-4 0  9995
2 33493  98.1452 253.8502 0015235 152.4712 207.7216 14.96014685484966
KKS-1 (KISEKI)
1 33499U 09002H   17363.21418178  .00000161  00000-0  31867-4 0  9998
2 33499  98.3452 174.5397 0010373 111.3179 248.9138 14.75278834480112
SWISSCUBE
1 35932U 09051B   17362.88537714 +.00000148 +00000-0 +44477-4 0  9992
2 35932 098.5206 145.2072 0007860 021.3920 338.7604 14.56104783438615
BEESAT
1 35933U 09051C   17362.92508098 +.00000124 +00000-0 +38946-4 0  9999
2 35933 098.5245 146.6849 0006353 036.0998 324.0626 14.56214270438682
ITUPSAT 1
1 35935U 09051E   17362.88403328 +.00000117 +00000-0 +37970-4 0  9994
2 35935 098.5358 146.8975 0008531 028.3359 331.8300 14.55398309438529
XIWANG-1 (HOPE-1)
1 36122U 09072B   17362.91327346 -.00000022 +00000-0 +53549-4 0  9991
2 36122 100.0861 020.4489 0007910 142.1509 218.0162 13.16342805386143
TISAT 1
1 36799U 10035E   17362.89409990 +.00000495 +00000-0 +56536-4 0  9997
2 36799 098.0836 129.8812 0013315 052.1179 308.1240 14.90652716404589
JUGNU
1 37839U 11058B   17362.34292712  .00000294  00000-0  14871-4 0  9994
2 37839  19.9627 353.2068 0019075 162.8907 327.5158 14.12605152321181
SRMSAT
1 37841U 11058D   17363.23668104  .00000283  00000-0  10687-4 0  9997
2 37841  19.9733  33.4838 0012056  64.2196   2.8186 14.10595091320856
M-CUBED/EXP-1 PRIME
1 37855U 11061F   17363.12174941  .00001285  00000-0  74093-4 0  9999
2 37855 101.7204 333.6571 0177892 225.3259 133.3340 15.03948897336086
HORYU 2
1 38340U 12025D   17362.93045909 +.00000267 +00000-0 +47366-4 0  9991
2 38340 098.3752 013.7258 0012298 037.7549 322.4520 14.75474586291592
STRAND 1
1 39090U 13009E   17363.11872835  .00000057  00000-0  35465-4 0  9998
2 39090  98.5344 206.5513 0010299  82.9742 277.2615 14.35004046253435
BEESAT 3
1 39134U 13015E   17362.93615042 +.00001467 +00000-0 +79446-4 0  9991
2 39134 064.8656 317.4315 0029612 232.9702 126.8716 15.18671252258662
SOMP
1 39135U 13015F   17363.21169152  .00001435  00000-0  83188-4 0  9993
2 39135  64.8696 327.7317 0030645 256.5031 103.2680 15.16276910258870
BEESAT 2
1 39136U 13015G   17362.92475280 +.00001407 +00000-0 +82791-4 0  9991
2 39136 064.8704 330.9915 0032290 255.1527 104.6021 15.15764032258391
CUBEBUG 1
1 39153U 13018D   17363.17899273  .00000237  00000-0  37983-4 0  9996
2 39153  97.9831  94.4318 0018059 134.3147 225.9549 14.80315543252442
ZACUBE
1 39417U 13066B   17362.63736114  .00000279  00000-0  41671-4 0  9991
2 39417  97.6072  35.2074 0058980 355.1579   4.9057 14.80849956221557
TRITON 1
1 39427U 13066M   17363.53638295  .00000253  00000-0  48006-4 0  9994
2 39427  97.6362   5.7820 0115600  83.0387 278.3951 14.67588639219693
GOMX 1
1 39430U 13066Q   17363.50139301  .00000216  00000-0  47878-4 0  9994
2 39430  97.6794 347.7965 0152438 145.8188 215.2943 14.58996567218414
HUMSAT D
1 39433U 13066T   17362.86964455 +.00000403 +00000-0 +45290-4 0  9995
2 39433 097.6290 060.0001 0029623 290.3929 069.4109 14.91701997221855
50 SAT
1 39436U 13066W   17363.50880262  .00049690  00000-0  77184-3 0  9990
2 39436  97.7119 121.0599 0005623  94.1842 266.0053 15.53795467226781
CUBEBUG 2
1 39440U 13066AA  17363.14353082  .00000282  00000-0  46303-4 0  9994
2 39440  97.6122  23.3960 0081244  28.6591 331.9049 14.75587753220849
FUNCUBE 1
1 39444U 13066AE  17362.85681728  .00000338  00000-0  48282-4 0  9996
2 39444  97.6086  36.7221 0058001 350.4504   9.5602 14.81611039220435
UWE-3
1 39446U 13066AG  17363.11892793  .00000264  00000-0  41848-4 0  9993
2 39446  97.6084  29.1749 0070522  11.5334 348.7473 14.78120958219998
SPROUT
1 39770U 14029E   17363.51914634  .00000792  00000-0  95458-4 0  9998
2 39770  97.8755 101.0693 0010253  51.7492 308.4656 14.86606831195154
UNISAT 6
1 40012U 14033C   17363.20820464  .00000223  00000-0  40924-4 0  9994
2 40012  97.8308 240.5221 0059252  27.8137 332.6218 14.73743014189660
DUCHIFAT 1
1 40021U 14033M   17362.71212803  .00000637  00000-0  71616-4 0  9992
2 40021  97.9171 276.1253 0013723  25.8048 334.3851 14.90152459191561
QB50P1
1 40025U 14033R   17362.75576399 +.00000359 +00000-0 +44508-4 0  9994
2 40025 097.9089 273.4699 0013303 031.1305 329.0697 14.88605202190921
CHUBUSAT 1
1 40300U 14070C   17363.13771663  .00001120  00000-0  52833-4 0  9992
2 40300  97.3808  79.3563 0021530 134.8223 285.1530 15.21318139174427
NUDT-PHONESAT
1 40900U 15049B   17362.97429186  .00002569  00000-0  12024-3 0  9991
2 40900  97.4425   8.2767 0012004 264.5393  95.4473 15.20592119126045
ZDPS 2A
1 40901U 15049C   17363.48264362  .00001057  00000-0  57188-4 0  9994
2 40901  97.4584   7.5282 0012183 267.6718  92.3121 15.16768669125932
ZDPS 2B
1 40902U 15049D   17363.17026863  .00000969  00000-0  52987-4 0  9996
2 40902  97.4469   5.5335 0012275 265.5680  94.4151 15.16580351125878
XW-2A
1 40903U 15049E   17363.47356668  .00002129  00000-0  55709-4 0  9994
2 40903  97.4043  31.5186 0012753 284.3125  75.6705 15.39829482127687
KAITUO 1A
1 40904U 15049F   17363.46903797  .00000795  00000-0  46253-4 0  9996
2 40904  97.4572   5.2770 0013225 267.5607 247.4608 15.14830520125806
OBJECT G
1 40905U 15049G   17363.47913154  .00000503  00000-0  31409-4 0  9990
2 40905  97.4547   3.6528 0014283 256.8343 103.1295 15.13814260125740
XW-2C
1 40906U 15049H   17363.51560100  .00000799  00000-0  46322-4 0  9992
2 40906  97.4573   5.1783 0013539 256.7853 103.1869 15.14950669125807
XW-2D
1 40907U 15049J   17363.48395109  .00000834  00000-0  47998-4 0  9994
2 40907  97.4545   4.8682 0012902 254.6576 105.3231 15.15083535125800
LILACSAT 2
1 40908U 15049K   17363.22568965  .00000472  00000-0  30039-4 0  9995
2 40908  97.4652   4.1849 0014508 255.7865 104.1755 15.13367497125667
XW-2F
1 40910U 15049M   17363.22938674  .00001241  00000-0  67650-4 0  9990
2 40910  97.4556   5.6292 0013685 252.0114 107.9628 15.16158283125690
XW-2B
1 40911U 15049N   17363.23137000  .00000816  00000-0  47117-4 0  9999
2 40911  97.4584   5.0896 0012805 256.1425 103.8383 15.15033842125661
